Regional Weather Roundup
Issued by NWS

Home | Current Version | Previous Version | Graphics & Text | Print | Product List | Glossary Off
Versions: 1 2 3 4 5 6 7 8 9 10 11 12 13 14 15 16 17 18 19 20 21 22 23 24 25 26 27 28 29 30 31 32 33 34 35 36 37 38 39 40 41 42 43 44 45 46 47 48 49 50

000
ASUS43 KFSD 312102
RWRSD

WEATHER ROUNDUP FOR SOUTH DAKOTA
NATIONAL WEATHER SERVICE SIOUX FALLS SD
300 PM CST SAT JAN 31 2015

NOTE: "FAIR" INDICATES FEW OR NO CLOUDS BELOW 12,000 FEET WITH NO
SIGNIFICANT WEATHER AND/OR OBSTRUCTIONS TO VISIBILITY.


SDZ001>005-009-010-012>017-312200-
NORTHWEST AND NORTH CENTRAL SOUTH DAKOTA

CITY           SKY/WX    TMP DP  RH WIND       PRES   REMARKS
BUFFALO          N/A     22  19  89 E10       29.95S WCI  11
FAITH            N/A     21  17  84 E18       30.06R WCI   6
MOBRIDGE       CLOUDY    19   5  54 NE17G23   30.16F WCI   4
$$

SDZ012>016-024>037-041>051-057-063-072>074-312200-
SOUTHWEST AND SOUTH CENTRAL SOUTH DAKOTA

CITY           SKY/WX    TMP DP  RH WIND       PRES   REMARKS
RAPID CTY ARPT FOG       25  24  96 E10       29.97F VSB 1/4 WCI  15
PIERRE         CLOUDY    19  16  88 NE18      30.10S WCI   4
CUSTER         MOSUNNY   31  19  61 E7        29.84F WCI  24
ELLSWORTH AFB  FRZ DRZL  24  23  96 E12       29.97F VSB<1/4 WCI  13
PHILIP         FOG       22  20  92 E14       30.07S VSB 1   WCI   9
PINE RIDGE     CLOUDY    27  23  85 E10       29.92S WCI  17
WINNER         FRZ RAIN  25  23  92 NE18      30.01F VSB 1/4 WCI  11
$$

SDZ004>011-016>023-039-040-312200-
NORTHEAST SOUTH DAKOTA

CITY           SKY/WX    TMP DP  RH WIND       PRES   REMARKS
ABERDEEN       PTSUNNY   18   2  49 NE16G29   30.21F WCI   3
WATERTOWN      CLOUDY    17  14  88 NE15G23   30.12F WCI   2
SISSETON         N/A     18   6  59 NE18      30.22F WCI   2
$$

SDZ017-020-022-023-036>040-048>070-312200-
SOUTHEAST SOUTH DAKOTA

CITY           SKY/WX    TMP DP  RH WIND       PRES   REMARKS
SIOUX FALLS    LGT SNOW  26  24  92 E15       30.06F FOG     WCI  14
HURON          CLOUDY    22  16  78 NE15      30.13F WCI   9
MITCHELL       CLOUDY    24  22  91 NE15      30.09F FOG     WCI  11
YANKTON        CLOUDY    28  27  93 NE14      30.04S WCI  17
$$

ABBREVIATIONS USED IN REMARKS
   TC - TEMPERATURE IN CELSIUS
  WCI - WIND CHILL INDEX
   HX - HEAT INDEX
  VSB - VISIBILITY




USA.gov is the U.S. government's official web portal to all federal, state and local government web resources and services.